www.pogodaiklimat.ru
ПОГОДА в Биндэре

Архив погоды в Биндэре (Монголия)

Время
(UTC), дата
06 21.05
09 21.05
12 21.05
15 21.05
18 21.05
21 21.05
00 22.05
03 22.05
06 22.05
09 22.05
12 22.05
15 22.05
18 22.05
21 22.05
00 23.05
03 23.05
06 23.05
09 23.05
12 23.05
15 23.05
18 23.05
21 23.05
00 24.05
03 24.05
06 24.05
09 24.05
12 24.05
15 24.05
18 24.05
21 24.05
00 25.05
03 25.05
06 25.05
09 25.05
12 25.05
15 25.05
18 25.05
21 25.05
00 26.05
03 26.05
06 26.05
09 26.05
12 26.05
15 26.05
18 26.05
21 26.05
00 27.05
03 27.05
06 27.05
09 27.05
12 27.05
15 27.05
18 27.05
21 27.05
00 28.05
Ветер
(напр.,м/с)
Видим. Явления Облачность Т
(С)
Тd
(С)
f
(%)
Тe
(С)
Тes
(С)
Комфортность P
(гПа)
Po
(гПа)
Тmin
(С)
Tmax
(С)
R
(мм)
R24
(мм)
S
(см)
Ю 1 20 км 3/3 600 м
[Cu med, cong]
+25.9 +1.2 20 +24 +37 комфорт 1004.7 890.1
ЮЗ 1 20 км 4/3 600 м
[Cu med, cong Ci]
+26.3 +2.2 21 +25 +30 комфорт 1003.3 888.1
ЮЗ 2 20 км 5/4 600 м
[Cu med, cong Ci]
+23.4 +2.9 26 +23 +23 комфорт 1012.3 888.0 +26.8
СЗ 1 н/о ясно +12.9 +2.9 51 +13 +13 1003.4 888.2
С 2 н/о ясно +10.9 +3.8 62 +10 +10 1002.7 887.5
СЗ 3 20 км 10/0
[Ac As]
+16.8 +5.4 47 +17 +17 1003.9 889.8
СЗ 3 20 км 6/3 600 м
[Cu med, cong Ac lent Ci fib]
+16.5 +5.1 47 +16 +19 1005.1 890.3 +9.8
З 2 20 км 4/0
[Cs]
+19.8 +0.7 28 +21 +35 комфорт 1006.6 890.3
СЗ 3 20 км 5/1 600 м
[Cu hum Cs]
+21.9 -0.8 22 +21 +32 комфорт 1005.7 889.5
СЗ 2 20 км 5/3 600 м
[Cu med, cong Ci]
+23.3 +1.0 23 +22 +27 комфорт 1003.2 888.6
СЗ 1 20 км 4/1 600 м
[Cu hum Ci]
+19.9 +0.8 28 +21 +21 комфорт 1004.4 889.0 +23.7
З 2 н/о ясно +10.9 +2.2 55 +10 +10 1007.0 890.3
штиль 0 н/о ясно +5.9 +1.6 74 +5 +5 1007.1 889.8
З 2 20 км 3/0
[Ac lent Cc]
+5.3 +1.6 77 +3 +3 1007.5 890.3
З 2 20 км 6/3 600 м
[Cu med, cong Ac cast Ci]
+14.0 +3.1 48 +14 +17 1004.0 888.1 +4.4
штиль 0 20 км 6/1 600 м
[Cu med, cong Cs]
+24.1 +2.8 25 +23 +40 комфорт 1002.0 886.7
З 7 20 км 6/4 600 м
[Cb calv Ci]
+26.1 +0.6 19 +24 +27 комфорт 1001.7 885.9
С 8 20 км {гроза, ливн. дождь} 8/3 600 м
[Cb calv Ac lent Cc]
+20.0 +4.0 35 +20 +20 1005.9 888.3
С 7 20 км {гроза, ливн. дождь} 9/6 600 м
[Sc Ac lent]
+16.7 +2.6 39 +16 +16 1007.6 890.8 +26.7 0.4
СЗ 3 н/о 9/5 600 м
[Sc Ac As]
+14.2 -0.4 37 +14 +14 1009.5 893.9
СЗ 2 н/о 6/6 600 м
[Sc]
+10.4 +1.2 53 +9 +9 1011.7 895.5
З 4 20 км 3/0
[Ac cast]
+7.3 -0.8 56 +4 +4 1016.2 897.7
С 5 20 км 8/6 600 м
[Cu med, cong Ac lent]
+10.9 +0.9 50 +8 +9 1019.3 900.5 +6.7
СВ 7 20 км 6/5 600 м
[Cu med, cong Ci]
+15.9 -1.2 31 +15 +17 1019.8 901.6
В 4 20 км 5/5 600 м
[Cu med, cong]
+17.9 -1.9 26 +18 +23 1019.0 901.6
С 3 20 км 6/6 600 м
[Cu med, cong]
+19.0 -3.8 21 +19 +21 1017.3 901.1
С 1 20 км 4/4 600 м
[Sc]
+18.0 +2.5 35 +19 +19 1017.8 901.1 +21.4
З 2 н/о ясно +8.1 -1.8 50 +7 +7 1023.4 903.4
З 1 н/о ясно +3.4 -1.8 69 +2 +2 1024.3 903.7
штиль 0 20 км ясно +1.5 -2.1 77 +1 +1 1024.6 904.0
З 1 20 км 3/0
[Ci]
+9.6 -0.9 48 +10 +16 1023.1 903.8 +1.2
В 1 20 км 4/1 600 м
[Cu hum Cs]
+19.0 +0.5 29 +20 +36 опасность
простуды
1020.5 901.5
З 1 20 км 6/6 600 м
[Cu med, cong]
+23.6 -2.4 18 +22 +30 комфорт 1016.7 898.1
СЗ 2 20 км 5/5 600 м
[Cu med, cong]
+23.3 -3.8 16 +21 +25 комфорт 1010.1 896.3
СЗ 2 20 км 9/8 600 м
[Cb calv Ci ing]
+20.0 -3.0 21 +20 +20 1012.9 895.3 +24.8
СВ 2 н/о 3/1 600 м
[Sc diur, vesp Ac lent]
+15.4 -2.6 29 +16 +16 1011.9 895.3
штиль 0 н/о ясно +11.2 -1.0 43 +11 +11 1011.3 894.6
С 1 20 км ясно +4.8 -1.1 66 +4 +4 1011.5 893.9
С 1 20 км ясно +13.3 +1.0 43 +14 +20 1010.0 893.4 +4.8
Ю 4 20 км ясно +21.3 -0.2 24 +21 +31 комфорт 1006.3 890.7
Ю 4 20 км 1/1 600 м
[Cu hum]
+24.4 -4.4 14 +22 +32 комфорт 998.4 886.5
Ю 3 20 км 3/3 600 м
[Cu med, cong]
+25.9 -3.6 14 +24 +27 комфорт 995.4 884.3
З 2 20 км 8/6 600 м
[Cb calv Ci fib]
+22.4 +0.2 23 +22 +22 комфорт 994.7 882.0 +26.8
З 2 н/о 3/1 600 м
[Cu hum Ci fib]
+16.4 +1.6 37 +17 +17 997.4 883.1
СЗ 1 н/о 4/3 600 м
[Cu med, cong Ci fib]
+11.8 +2.5 53 +12 +12 996.8 882.3
штиль 0 20 км 9/8 600 м
[Cb calv Ci]
+13.4 +3.1 50 +13 +13 995.0 881.4
С 5 20 км 9/8 600 м
[Cu Sc As trans]
+12.3 +2.9 53 +10 +11 999.4 884.4 +11.5
СЗ 5 10 км гроза без осадков {ливн. дождь} туман 9/9 600 м
[Cb calv]
+11.6 -2.3 38 +10 +10 1000.1 883.7
С 7 20 км {гроза, ливн. дождь} 3/3 600 м
[Cu med, cong]
+18.1 -3.4 23 +17 +21 997.8 882.0
С 5 20 км 1/1 600 м
[Cu hum]
+18.1 -5.3 20 +18 +21 997.6 882.1
З 3 20 км 3/0
[Ac lent Cs]
+14.4 -6.0 24 +14 +14 1000.5 883.6 +19.0 0.0
З 2 н/о 1/0
[Ci fib]
+9.2 -5.6 35 +8 +8 1002.7 884.6
З 3 н/о 3/0
[Ac lent Ci fib]
+4.4 -4.7 52 +1 +1 1002.5 884.7
Ю 1 20 км 9/0
[As trans]
+4.3 -4.1 54 +4 +4 1002.5 884.6
З 3 20 км 10/0
[As trans]
+7.3 -5.8 39 +5 +7 1002.7 884.7 +3.1
Местоположение метеостанции Биндэр (Монголия): широта 48.62 долгота 110.60 высота над уровнем моря 747 м.
В архиве по умолчанию представлена погода в Биндэре за последнюю неделю. Архивные данные за месяц целиком и за предыдущие месяцы, начиная с января 2011 года, Вы можете получить, выбрав интересующий диапазон дат из раскрывающегося списка и нажав кнопку "Найти!".
*Определитесь, кто Вы:
Внимание! Время в таблицах - всемирное. Для получения местного времени необходимо прибавить поправку, которая равна 8 ч.
Смотрите также архив погоды в соседних городах и на ближайших метеорологических станциях:
Партнеры нашего сайта:      
Пояснения к столбцам:
  • Ветер - указаны скорость ветра в м/с - средняя за 10 мин, порывы в срок и между сроками (в фигурных скобках) и направление, откуда дует ветер: С - северный,
  • СВ - северо-восточный, В - восточный, ЮВ - юго-восточный, Ю - южный, ЮЗ - юго-западный, З - западный, СЗ - северо-западный.
  • Видимость - горизонтальная дальность видимости в метрах или километрах. При видимости от 1 до 10 км при отсутствии осадков обычно наблюдается дымка, при ухудшении видимости до 1 км и менее - туман. В сухую погоду видимость может ухудшаться дымом, пылью или мглою.
  • Явления - указаны атмосферные явления, наблюдавшиеся в срок или в последний час перед сроком; фигурными скобками обозначены явления, наблюдавшиеся между сроками (за 1-3 часа до срока); квадратными скобками обозначены град или гололедные отложения с указанием их диаметра в мм.
  • Облачность - указаны через наклонную черту общая и нижняя облачность в баллах и высота нижней границы облаков в метрах; квадратными скобками обозначены формы облаков: Ci - перистые, Cs - перисто-слоистые, Cc - перисто-кучевые, Ac - высококучевые, As - высокослоистые, Sc - слоисто-кучевые, Ns - слоисто-дождевые, Cu - кучевые, Cb - кучево-дождевые. Подробнее классификацию облаков см. в Атласе облаков (PDF).
  • T - Температура воздуха - температура, измеренная на высоте 2 м над землей.
  • Td - Температура точки росы - температура, при понижении до которой содержащийся в воздухе водяной пар достигнет насыщения.
  • f - Относительная влажность воздуха - влажноcть воздуха, измеренная на высоте 2 м над землей.
  • Te - Эффективная температура - температура, которую ощущает одетый по сезону человек в тени. Характеристика душности погоды. При расчете учитывается влияние влажности воздуха и скорости ветра на теплоощущения человека.
  • Tes - Эффективная температура на солнце - температура, которую ощущает человек, с поправкой на солнечный нагрев. Характеристика знойности погоды. Зависит от высоты солнца над горизонтом, облачности и скорости ветра. Ночью, в пасмурную погоду, а также при ветре 12 м/с и более поправка равна нулю.
  • P - Атмосферное давление - приведенное к уровню моря атмосферное давление.
  • Po - Атмосферное давление - измеренное на уровне метеостанции атмосферное давление.
  • Tmin - Минимальная температура - минимум температуры воздуха на высоте 2 м над землей.
  • Tmax - Максимальная температура - максимум температуры воздуха на высоте 2 м над землей.
  • R - Количество осадков - Количество выпавших осадков за период времени, мм. При наведении курсора мыши на число - период времени, за который выпало указанное количество осадков.
  • R24 - Количество осадков - Количество выпавших осадков за 24 часа, мм.
  • S - Снежный покров - Высота снежного покрова, см. При наведении курсора мыши на число - состояние снежного покрова и степень покрытия местности в баллах.